Location: Unspecified
(49.2170°N, 0.0000°E)
Time: 23:46:35
(UTC+00:00)

Vanguard 3 - Pass Details

Date: 25 June 2019
Orbit: 508 x 3262 km, 33.3° (Epoch: 13 October)

Event Time Altitude Azimuth Distance (km) Brightness Sun altitude
Rises 12:43:44 0° 251° (WSW) 6,042 11.8 62.9°
Reaches altitude 10° 12:48:59 10° 242° (WSW) 4,537 11.4 62.6°
Maximum altitude 12:58:05 28° 191° (S) 2,431 10.6 62.0°
Drops below altitude 10° 13:03:58 10° 135° (SE) 2,849 10.2 61.5°
Sets 13:06:28 0° 122° (ESE) 3,508 10.4 61.3°
